Location: Kikino
(54.4440°N, 112.0940°W)
Time: 23:31:46
(UTC+00:00)

Vanguard 3 - Pass Details

Date: 27 May 2024
Orbit: 509 x 3231 km, 33.3° (Epoch: 21 June)

Event Time Altitude Azimuth Distance (km) Brightness Sun altitude
Rises 04:56:37 0° 252° (WSW) 4,711 11.3 -7.7°
Reaches altitude 10° 05:00:14 10° 238° (WSW) 4,130 10.8 -8.0°
Maximum altitude 05:08:34 23° 192° (SSW) 3,975 10.3 -8.7°
Enters shadow 05:19:34 11° 151° (SSE) 5,681 10.7 -9.5°
